Location: Beddau
(51.5575°N, 3.3561°W)
Time: 02:52:41
(UTC+00:00)

Ariane Rocket - Pass Details

Date: 03 March 2021
Orbit: 759 x 771 km, 98.7° (Epoch: 13 April)

Event Time Altitude Azimuth Distance (km) Brightness Sun altitude
Exits shadow 20:22:15 23° 179° (S) 1,610 4.4 -23.0°
Maximum altitude 20:25:29 67° 257° (WSW) 837 3.3 -23.5°
Drops below altitude 10° 20:30:35 10° 340° (NNW) 2,324 6.0 -24.2°
Sets 20:32:56 0° 343° (NNW) 3,254 6.8 -24.5°
